Location: Consuma
(43.7833°N, 11.5833°E)
Time: 09:38:09
(UTC+00:00)

Cosmos 1408 Rocket - Pass Details

Date: 17 February 2020
Orbit: 602 x 630 km, 82.6° (Epoch: 09 April)

Event Time Altitude Azimuth Distance (km) Brightness Sun altitude
Rises 04:10:09 0° 348° (NNW) 2,876 6.9 -22.4°
Enters shadow 04:11:23 - 346° (NNW) 2,376 6.5 -22.1°
Exits shadow 04:16:20 58° 290° (WNW) 716 3.5 -21.2°
Maximum altitude 04:16:41 61° 265° (W) 700 3.4 -21.2°
Drops below altitude 10° 04:20:59 10° 186° (S) 1,972 6.0 -20.4°
Sets 04:23:13 0° 182° (S) 2,877 6.9 -20.0°
